Orbital Elements at Epoch 2459200.5 (2020-Dec-17.0) TDB
Reference: JPL 15 (heliocentric ecliptic J2000)
Element | Value | Uncertainty (1-sigma) | Units |
e | .2076597359279558 | 3.079e-08 | |
a | 2.35756664955569 | 7.9256e-09 | au |
q | 1.8679949816764 | 7.4844e-08 | au |
i | 2.532744199068256 | 5.1285e-06 | deg |
node | 163.844967107342 | 9.8898e-05 | deg |
peri | 120.0147871833017 | 0.00010013 | deg |
M | 15.89022279149252 | 1.4505e-05 | deg |
tp | 2459142.139113337661 (2020-Oct-19.63911334) | 5.3213e-05 | TDB |
period | 1322.191606381405 3.62 | 6.6673e-06 1.825e-08 | d yr |
n | .2722752120513409 | 1.373e-09 | deg/d |
Q | 2.84713831743498 | 9.5714e-09 | au |
|
| | Orbit Determination Parameters
Additional Information
|